Highgate, VT

2:21 PM EDT on August 20, 2017 (GMT -0400)
Franklin County State

Weather History for KFSO - November, 2011

Change the Weather History Date:

Sunday, November 20, 2011

  Actual Average (KPBG) Record (KPBG)
Temperature  
Mean Temperature 43 °F -  
Max Temperature 51 °F 43 °F 68 °F (1953)
Min Temperature 35 °F 27 °F 11 °F (1986)
Degree Days  
Heating Degree Days 22    
Moisture  
Dew Point 36 °F    
Average Humidity 69    
Maximum Humidity 93    
Minimum Humidity 46    
Precipitation  
Precipitation 0.00 in - - ()
Sea Level Pressure  
Sea Level Pressure 29.96 in    
Wind  
Wind Speed 10 mph (SW)    
Max Wind Speed 17 mph    
Max Gust Speed 29 mph    
Visibility 10 miles    
Events Rain    
Averages and records for this station are not official NWS values.
T = Trace of Precipitation, MM = Missing Value Source: NWS Daily Summary

Daily Weather History Graph

Daily Weather History Graph

Search for Another Location

Airport or City:

Trip Planner

Search our weather history database for the weather conditions in past years. The results will help you decide how hot, cold, wet, or windy it might be!

Date:

Astronomy

Nov. 20, 2011 Rise Set
Actual Time 6:56 AM EST 4:19 PM EST
Civil Twilight 6:24 AM EST 4:51 PM EST
Nautical Twilight 5:48 AM EST 5:27 PM EST
Astronomical Twilight 5:13 AM EST 6:02 PM EST
Moon 1:08 AM EST 1:18 PM EST
Length of Visible Light 10h 27m
Length of Day
9h 23m
Waning Crescent, 27% of the Moon is Illuminated
Nov 20
Waning Crescent
Nov 25
New
Dec 2
First Quarter
Dec 10
Full
Dec 17
Last Quarter

Hourly Weather History & Observations

Time (EST) Temp. Windchill Dew Point Humidity Pressure Visibility Wind Dir Wind Speed Gust Speed Precip Events Conditions
12:35 AM 48.2 °F - 28.4 °F 46% 29.98 in 10.0 mi South 10.4 mph 18.4 mph N/A   Overcast
12:55 AM 48.2 °F - 28.4 °F 46% 29.97 in 10.0 mi South 10.4 mph 17.3 mph N/A   Overcast
1:35 AM 48.2 °F - 28.4 °F 46% 29.96 in 10.0 mi South 11.5 mph 18.4 mph N/A   Overcast
1:55 AM 48.2 °F - 28.4 °F 46% 29.96 in 10.0 mi South 9.2 mph - N/A   Overcast
2:15 AM 48.2 °F - 28.4 °F 46% 29.95 in 10.0 mi South 6.9 mph 17.3 mph N/A   Overcast
2:35 AM 48.2 °F - 30.2 °F 50% 29.94 in 10.0 mi South 11.5 mph 19.6 mph N/A   Overcast
2:55 AM 48.2 °F - 30.2 °F 50% 29.92 in 10.0 mi South 11.5 mph 20.7 mph N/A   Overcast
3:15 AM 48.2 °F - 30.2 °F 50% 29.90 in 10.0 mi South 16.1 mph 25.3 mph N/A   Overcast
3:55 AM 48.2 °F - 32.0 °F 54% 29.88 in 10.0 mi South 11.5 mph 27.6 mph N/A   Overcast
4:15 AM 48.2 °F - 32.0 °F 54% 29.86 in 10.0 mi South 10.4 mph 23.0 mph N/A   Overcast
4:35 AM 48.2 °F - 32.0 °F 54% 29.86 in 10.0 mi South 15.0 mph 20.7 mph N/A   Overcast
4:55 AM 48.2 °F - 32.0 °F 54% 29.85 in 10.0 mi South 11.5 mph 21.9 mph N/A   Overcast
5:15 AM 48.2 °F - 32.0 °F 54% 29.84 in 10.0 mi South 13.8 mph 21.9 mph N/A   Overcast
5:55 AM 48.2 °F - 32.0 °F 54% 29.82 in 10.0 mi South 15.0 mph 27.6 mph N/A   Overcast
6:15 AM 48.2 °F - 32.0 °F 54% 29.82 in 10.0 mi South 12.7 mph 26.5 mph N/A   Overcast
6:35 AM 48.2 °F - 32.0 °F 54% 29.82 in 10.0 mi South 11.5 mph 28.8 mph N/A   Overcast
6:55 AM 48.2 °F - 32.0 °F 54% 29.80 in 10.0 mi South 17.3 mph 28.8 mph N/A   Overcast
7:15 AM 48.2 °F - 32.0 °F 54% 29.81 in 10.0 mi South 13.8 mph 23.0 mph N/A   Overcast
7:55 AM 48.2 °F - 32.0 °F 54% 29.81 in 10.0 mi South 16.1 mph 25.3 mph N/A   Overcast
8:35 AM 48.2 °F - 33.8 °F 58% 29.82 in 10.0 mi South 15.0 mph 26.5 mph N/A   Overcast
8:55 AM 48.2 °F - 33.8 °F 58% 29.83 in 10.0 mi SSW 15.0 mph 26.5 mph N/A   Overcast
9:15 AM 48.2 °F - 33.8 °F 58% 29.83 in 10.0 mi South 10.4 mph 20.7 mph N/A   Overcast
9:55 AM 48.2 °F - 33.8 °F 58% 29.83 in 10.0 mi SSW 13.8 mph 23.0 mph N/A   Overcast
10:15 AM 50.0 °F - 35.6 °F 58% 29.84 in 10.0 mi SSW 11.5 mph 19.6 mph N/A   Overcast
10:35 AM 50.0 °F - 37.4 °F 62% 29.84 in 10.0 mi South 12.7 mph 20.7 mph N/A   Overcast
10:55 AM 50.0 °F - 37.4 °F 62% 29.84 in 10.0 mi SSW 12.7 mph 20.7 mph N/A   Overcast
11:15 AM 50.0 °F - 37.4 °F 62% 29.84 in 10.0 mi SSW 10.4 mph 20.7 mph N/A   Overcast
11:35 AM 48.2 °F - 39.2 °F 71% 29.83 in 10.0 mi SSW 10.4 mph 19.6 mph N/A   Drizzle
11:55 AM 50.0 °F - 41.0 °F 71% 29.83 in 10.0 mi SSW 11.5 mph 21.9 mph N/A   Overcast
12:15 PM 50.0 °F - 42.8 °F 76% 29.84 in 10.0 mi SSW 9.2 mph 23.0 mph N/A   Overcast
12:35 PM 51.8 °F - 42.8 °F 71% 29.85 in 10.0 mi SW 5.8 mph - N/A   Overcast
12:55 PM 51.8 °F - 42.8 °F 71% 29.87 in 7.0 mi WSW 6.9 mph 21.9 mph N/A   Drizzle
1:15 PM 50.0 °F - 46.4 °F 87% 29.89 in 5.0 mi SW 4.6 mph - N/A Rain Light Rain
1:35 PM 48.2 °F - 46.4 °F 93% 29.90 in 10.0 mi Calm Calm - N/A   Overcast
1:55 PM 48.2 °F - 46.4 °F 93% 29.91 in 7.0 mi Calm Calm - N/A Rain Rain
2:15 PM 48.2 °F - 46.4 °F 93% 29.92 in 10.0 mi Calm Calm - N/A   Overcast
2:35 PM 48.2 °F - 44.6 °F 87% 29.94 in 10.0 mi WNW 3.5 mph - N/A   Overcast
3:15 PM 48.2 °F - 44.6 °F 87% 29.98 in 10.0 mi WNW 3.5 mph - N/A   Overcast
3:35 PM 48.2 °F - 44.6 °F 87% 30.00 in 10.0 mi Calm Calm - N/A   Overcast
3:55 PM 48.2 °F - 44.6 °F 87% 30.01 in 10.0 mi NW 5.8 mph - N/A   Overcast
4:15 PM 48.2 °F - 42.8 °F 82% 30.02 in 10.0 mi NW 8.1 mph - N/A   Overcast
4:55 PM 44.6 °F 42.2 °F 41.0 °F 87% 30.05 in 10.0 mi West 4.6 mph - N/A   Overcast
5:15 PM 44.6 °F 43.1 °F 41.0 °F 87% 30.06 in 10.0 mi WNW 3.5 mph - N/A   Overcast
5:35 PM 44.6 °F 43.1 °F 41.0 °F 87% 30.07 in 10.0 mi NW 3.5 mph - N/A   Overcast
5:55 PM 44.6 °F 41.4 °F 41.0 °F 87% 30.09 in 10.0 mi NW 5.8 mph - N/A   Overcast
6:15 PM 42.8 °F 39.3 °F 37.4 °F 81% 30.10 in 10.0 mi NNW 5.8 mph - N/A   Overcast
6:35 PM 42.8 °F 39.3 °F 35.6 °F 76% 30.11 in 10.0 mi NW 5.8 mph - N/A   Overcast
6:55 PM 41.0 °F 36.4 °F 33.8 °F 76% 30.12 in 10.0 mi NW 6.9 mph - N/A   Overcast
7:15 PM 41.0 °F 37.1 °F 33.8 °F 76% 30.13 in 10.0 mi NNW 5.8 mph - N/A   Overcast
7:35 PM 41.0 °F 38.0 °F 33.8 °F 76% 30.15 in 10.0 mi NNW 4.6 mph - N/A   Overcast
7:55 PM 41.0 °F 37.1 °F 33.8 °F 76% 30.15 in 10.0 mi NW 5.8 mph - N/A   Overcast
8:15 PM 39.2 °F 33.0 °F 32.0 °F 75% 30.16 in 10.0 mi North 9.2 mph - N/A   Overcast
8:35 PM 37.4 °F 30.8 °F 32.0 °F 81% 30.17 in 10.0 mi North 9.2 mph - N/A   Overcast
8:55 PM 37.4 °F 31.4 °F 32.0 °F 81% 30.17 in 10.0 mi NNE 8.1 mph - N/A   Overcast
9:15 PM 37.4 °F 30.8 °F 32.0 °F 81% 30.18 in 10.0 mi North 9.2 mph - N/A   Overcast
9:35 PM 35.6 °F 27.5 °F 30.2 °F 81% 30.19 in 10.0 mi North 11.5 mph - N/A   Overcast
9:55 PM 35.6 °F 29.2 °F 30.2 °F 81% 30.19 in 10.0 mi North 8.1 mph - N/A   Overcast
10:15 PM 35.6 °F 29.2 °F 30.2 °F 81% 30.20 in 10.0 mi North 8.1 mph - N/A   Overcast
10:35 PM 35.6 °F 30.7 °F 30.2 °F 81% 30.20 in 10.0 mi NNE 5.8 mph - N/A   Overcast
10:55 PM 35.6 °F 28.0 °F 30.2 °F 81% 30.21 in 10.0 mi NNE 10.4 mph - N/A   Overcast
11:15 PM 35.6 °F 30.7 °F 28.4 °F 75% 30.22 in 10.0 mi North 5.8 mph - N/A   Overcast
11:35 PM 33.8 °F 27.0 °F 28.4 °F 81% 30.23 in 10.0 mi North 8.1 mph - N/A   Overcast
11:55 PM 33.8 °F 25.8 °F 28.4 °F 81% 30.24 in 10.0 mi North 10.4 mph - N/A   Overcast